Total_Precipitation_Accumulation
0.07 0.21 0.55 0.87 1.65 1.78 1.20 0.64 0.47 0.38 0.40 0.45 0.50 0.49 0.53 0.68 0.96 1.69 1.54 1.16 1.03 1.23 1.61 2.19 2.36 2.25 2.20 2.19 2.06 2.10 2.05 2.03 2.21 2.30 2.28 2.13 2.08 2.31 2.37 2.34 2.33 2.42 2.35 2.08 1.97 1.72 1.52 1.53 1.54
0.17 0.36 0.71 1.18 1.75 1.42 1.02 0.51 0.38 0.35 0.32 0.43 0.49 0.42 0.40 0.45 0.41 0.63 0.98 1.11 1.01 1.09 1.31 1.64 1.97 1.98 1.93 1.91 1.93 1.94 1.88 1.90 2.03 2.08 2.18 2.16 2.07 2.31 2.48 2.37 2.32 2.45 2.27 2.06 1.86 1.68 1.47 1.38 1.39
0.28 0.46 0.88 1.39 1.07 0.73 0.64 0.37 0.32 0.37 0.45 0.63 0.74 0.51 0.45 0.65 0.55 0.66 0.80 0.82 0.90 1.01 1.11 1.40 1.72 1.74 1.74 1.77 1.92 1.93 1.81 1.80 1.90 2.02 2.14 2.24 2.23 2.30 2.47 2.36 2.36 2.47 2.44 2.20 1.90 1.71 1.49 1.39 1.35
0.35 0.60 0.90 0.95 0.44 0.28 0.34 0.26 0.31 0.41 0.69 0.82 0.85 0.72 0.63 0.66 0.58 0.61 0.62 0.70 0.85 0.99 1.14 1.37 1.60 1.57 1.64 1.67 1.87 1.88 1.86 1.83 1.88 2.02 2.03 2.17 2.36 2.44 2.57 2.46 2.44 2.46 2.36 2.09 1.87 1.64 1.45 1.34 1.30
0.40 0.74 1.04 0.65 0.20 0.16 0.18 0.15 0.22 0.35 0.61 0.82 0.84 0.94 0.99 0.92 0.70 0.60 0.60 0.76 0.88 1.00 1.20 1.30 1.53 1.61 1.73 1.89 2.02 1.95 1.89 1.77 1.80 1.84 1.79 1.96 2.35 2.56 2.68 2.67 2.59 2.49 2.35 2.03 1.81 1.61 1.41 1.31 1.34
0.55 0.87 0.76 0.42 0.21 0.14 0.14 0.14 0.23 0.43 0.64 0.80 0.97 1.12 1.12 0.99 0.76 0.68 0.70 0.86 0.95 0.98 1.22 1.32 1.55 1.67 1.76 1.92 2.21 2.24 1.95 1.79 1.76 1.83 1.78 1.87 2.16 2.49 2.65 2.79 2.81 2.66 2.42 2.03 1.79 1.55 1.36 1.32 1.39
0.44 0.56 0.44 0.28 0.20 0.14 0.13 0.19 0.29 0.44 0.55 0.83 1.11 1.21 1.13 1.11 0.92 0.77 0.92 0.98 1.28 1.08 1.16 1.33 1.54 1.70 1.78 1.88 2.07 2.07 2.00 1.87 1.88 1.98 1.86 1.94 2.20 2.42 2.59 2.86 2.80 2.64 2.44 2.08 1.80 1.54 1.34 1.34 1.39
0.27 0.35 0.28 0.20 0.13 0.09 0.11 0.18 0.29 0.40 0.67 0.94 0.98 1.11 1.24 1.07 1.00 1.02 1.14 1.18 1.40 1.34 1.20 1.26 1.43 1.72 1.78 1.79 1.94 2.10 2.03 1.94 1.98 2.04 2.04 2.32 2.52 2.56 2.61 2.84 2.90 2.69 2.47 2.10 1.93 1.70 1.47 1.45 1.42
0.26 0.34 0.27 0.16 0.07 0.08 0.13 0.23 0.30 0.36 0.56 0.74 0.84 0.84 0.72 0.77 0.95 1.09 1.27 1.45 1.55 1.55 1.50 1.53 1.50 1.54 1.65 1.67 1.88 2.35 2.31 2.20 2.22 2.34 2.57 2.88 3.15 3.13 3.17 3.11 3.20 3.06 2.71 2.47 2.30 2.11 1.81 1.65 1.50
0.21 0.25 0.15 0.07 0.04 0.06 0.11 0.20 0.33 0.43 0.72 1.08 1.12 1.17 0.89 0.94 1.10 1.21 1.28 1.35 1.55 1.70 1.72 1.91 1.75 1.60 1.65 1.64 2.28 2.99 2.81 2.68 2.76 2.90 3.04 3.41 3.58 3.85 3.39 3.67 3.82 3.81 3.55 3.24 3.05 2.95 2.46 1.86 1.55
0.06 0.07 0.05 0.04 0.03 0.03 0.06 0.12 0.17 0.37 0.79 1.24 1.32 1.33 1.16 1.14 1.24 1.38 1.48 1.63 1.81 2.02 1.88 1.82 1.97 2.04 2.04 2.13 2.37 2.70 3.02 3.12 3.18 3.17 3.19 3.45 3.40 3.56 3.58 3.99 4.63 4.57 3.90 3.41 3.46 3.40 2.74 2.37 2.46
0.04 0.03 0.03 0.03 0.02 0.03 0.06 0.12 0.22 0.38 0.81 1.10 1.03 0.92 0.96 1.19 1.39 1.58 1.97 2.22 2.43 2.57 2.55 2.61 2.57 2.59 2.60 2.45 2.34 2.42 2.58 2.68 2.74 2.85 2.89 3.09 3.43 3.59 3.74 4.03 4.06 4.07 3.79 3.85 3.62 3.55 3.18 2.88 2.66
0.03 0.03 0.03 0.03 0.03 0.04 0.09 0.18 0.31 0.44 0.71 0.70 0.62 0.69 1.10 1.37 1.61 1.94 2.20 2.45 2.70 3.06 3.34 3.91 3.87 3.37 3.08 2.82 2.57 2.28 2.46 2.33 2.15 2.31 2.63 2.76 2.97 3.31 3.45 3.32 3.35 3.09 3.18 3.40 3.44 3.08 3.21 3.10 3.05
0.02 0.03 0.04 0.05 0.05 0.07 0.11 0.17 0.42 0.52 0.61 0.69 0.67 0.96 1.42 1.91 2.12 2.38 2.71 3.14 3.46 3.89 3.95 4.17 4.75 4.16 3.53 3.03 2.74 2.52 2.36 2.44 2.24 2.33 2.32 2.57 2.76 2.86 2.91 2.82 2.93 2.79 2.82 2.90 2.88 2.81 3.16 3.24 3.13
0.04 0.06 0.13 0.13 0.10 0.11 0.16 0.36 0.55 0.66 0.66 0.89 0.96 1.17 1.73 2.38 2.39 2.69 3.02 3.53 3.97 4.43 4.60 4.72 5.05 4.79 4.35 3.79 3.21 2.73 2.53 2.36 2.37 2.48 2.26 2.32 2.46 2.49 2.54 2.58 2.58 2.61 2.49 2.47 2.43 2.49 2.78 2.84 2.75
0.06 0.13 0.29 0.24 0.13 0.13 0.23 0.72 0.85 0.73 0.70 0.99 1.21 1.42 1.90 2.57 2.64 2.95 3.42 3.96 4.63 5.08 5.37 5.41 5.17 5.24 4.94 4.36 3.79 3.34 3.08 2.82 2.59 2.41 2.26 2.08 2.16 2.19 2.29 2.20 2.18 2.19 2.12 2.12 2.31 2.35 2.56 2.77 2.83
0.11 0.17 0.29 0.28 0.20 0.17 0.26 0.74 0.78 0.53 0.69 0.96 1.29 1.59 1.91 2.25 2.72 3.31 3.82 4.38 5.29 6.25 6.73 6.52 5.87 5.52 5.13 4.66 4.20 3.99 3.80 3.43 2.99 2.75 2.52 2.32 2.12 2.03 2.12 2.18 2.23 1.93 1.97 2.07 1.96 2.25 2.42 2.72 2.80
0.08 0.12 0.23 0.32 0.24 0.28 0.39 0.49 0.62 0.66 0.84 1.04 1.26 1.43 1.77 2.05 2.43 3.14 3.72 4.41 5.37 6.57 7.32 7.23 6.57 5.78 5.15 4.88 4.53 4.36 4.06 3.65 3.17 2.93 2.79 2.47 2.30 2.05 2.08 1.97 1.90 1.70 1.88 2.19 2.32 2.71 2.64 2.57 2.55
0.05 0.10 0.18 0.28 0.23 0.33 0.43 0.51 0.66 0.82 1.04 1.09 1.16 1.26 1.51 1.81 2.21 2.93 3.57 4.13 4.82 5.59 6.18 6.09 5.48 5.01 4.54 4.14 3.65 3.60 3.43 3.18 2.96 2.71 2.48 2.43 2.31 2.11 2.17 1.99 2.08 1.82 1.88 2.00 2.04 2.31 2.43 2.35 2.35
0.06 0.10 0.17 0.22 0.19 0.21 0.36 0.61 0.76 0.84 1.02 0.98 0.97 1.03 1.23 1.59 2.21 2.96 3.56 3.78 3.82 4.10 4.35 3.85 3.66 3.69 3.41 3.25 3.25 3.18 3.05 2.75 2.53 2.40 2.49 2.17 2.13 2.07 1.92 2.12 1.93 1.86 2.05 2.06 2.11 2.33 2.43 2.34 2.39
0.09 0.11 0.13 0.20 0.22 0.28 0.44 0.83 1.02 0.94 0.96 0.82 0.80 1.02 1.49 1.91 2.33 2.83 3.01 3.02 2.93 2.90 2.88 2.65 2.61 2.93 2.98 3.06 3.13 3.14 3.11 2.94 2.69 2.41 2.42 2.08 1.88 1.90 1.99 1.96 2.02 2.10 1.81 2.04 2.19 2.20 2.38 2.47 2.38
0.08 0.08 0.06 0.09 0.17 0.41 0.58 1.05 1.28 1.18 1.11 0.84 0.88 1.27 1.77 2.08 2.32 2.30 1.88 1.75 1.90 2.00 2.12 2.38 2.48 2.62 2.58 2.75 2.73 2.66 2.44 2.29 2.18 2.11 2.18 2.19 1.97 1.86 1.81 1.88 2.16 2.26 1.97 2.18 1.77 1.89 2.20 2.40 2.33
0.06 0.05 0.04 0.08 0.18 0.45 0.74 1.19 1.45 1.33 1.11 0.86 0.83 0.89 1.28 1.43 1.38 1.23 1.09 1.13 1.36 1.64 1.92 2.29 2.40 2.44 2.37 2.36 2.49 2.68 2.58 2.55 2.39 2.28 2.48 2.46 2.43 2.17 1.85 1.86 2.11 2.30 2.24 2.27 2.08 2.28 2.08 1.99 2.00
0.05 0.06 0.13 0.22 0.41 0.88 0.96 1.07 1.37 1.26 1.04 0.91 0.78 0.69 0.89 0.93 0.75 0.79 0.90 1.10 1.34 1.51 1.68 1.94 2.08 2.27 2.30 2.35 2.45 2.49 2.53 2.65 2.57 2.47 2.37 2.25 2.28 2.21 2.06 2.02 2.27 2.27 2.23 2.33 2.25 2.24 2.09 2.06 2.06
0.04 0.07 0.28 0.63 0.94 1.09 0.83 0.97 1.30 0.98 0.77 0.66 0.54 0.47 0.48 0.57 0.64 0.79 0.90 1.11 1.21 1.30 1.35 1.53 1.59 1.80 1.99 2.11 2.19 2.28 2.42 2.53 2.47 2.49 2.40 2.28 2.10 2.01 2.10 2.17 2.37 2.27 2.21 2.16 2.25 2.24 2.22 2.24 2.26
0.05 0.05 0.13 0.25 0.38 0.60 0.78 1.19 1.28 0.90 0.60 0.45 0.41 0.41 0.40 0.48 0.55 0.61 0.74 0.86 0.94 1.07 1.25 1.43 1.42 1.45 1.53 1.59 1.77 1.95 2.02 2.15 2.20 2.45 2.35 2.25 2.12 2.04 2.14 2.22 2.11 2.06 2.08 1.95 2.21 2.11 2.07 2.16 2.19
0.05 0.04 0.05 0.08 0.12 0.37 0.83 1.13 1.08 0.74 0.57 0.51 0.50 0.51 0.52 0.52 0.63 0.60 0.62 0.81 0.88 0.84 0.95 1.14 1.20 1.24 1.29 1.35 1.49 1.56 1.60 1.76 1.99 2.05 1.90 1.76 1.84 1.95 2.05 2.04 2.07 2.06 2.05 2.11 2.30 2.20 2.19 2.33 2.16
0.05 0.05 0.05 0.07 0.13 0.29 0.67 1.19 1.45 1.14 0.81 0.64 0.68 0.60 0.54 0.48 0.54 0.65 0.67 0.75 0.80 0.78 0.95 1.09 1.18 1.24 1.26 1.27 1.31 1.25 1.40 1.52 1.70 1.78 1.78 1.70 1.64 1.78 1.94 2.02 2.10 2.12 2.04 2.08 2.25 2.13 2.24 2.33 2.29
0.06 0.06 0.07 0.09 0.10 0.19 0.49 0.81 0.88 0.99 0.82 0.61 0.64 0.60 0.54 0.48 0.50 0.62 0.65 0.72 0.70 0.69 0.80 0.97 1.16 1.21 1.13 1.17 1.21 1.29 1.38 1.55 1.63 1.60 1.66 1.68 1.70 1.81 1.88 1.96 2.04 2.05 2.06 2.17 2.26 2.14 2.29 2.32 2.41
0.08 0.09 0.10 0.11 0.13 0.14 0.25 0.45 0.50 0.57 0.67 0.87 0.81 0.68 0.66 0.62 0.55 0.59 0.63 0.68 0.63 0.63 0.71 0.83 1.02 1.16 1.19 1.18 1.25 1.35 1.42 1.51 1.58 1.52 1.62 1.80 1.84 1.89 1.92 1.99 2.09 2.03 2.11 2.25 2.20 2.17 2.26 2.33 2.32